TimeEST,TemperatureF,Dew PointF,Humidity,Sea Level PressureIn,VisibilityMPH,Wind Direction,Wind SpeedMPH,Gust SpeedMPH,PrecipitationIn,Events,Conditions,WindDirDegrees,DateUTC
12:03 AM,33.8,28.4,81,29.99,2.5,NE,3.5,-,0.00,Snow,Light Snow,40,2012-12-25 05:03:00
12:51 AM,32.0,30.2,93,29.99,1.8,NNE,5.8,-,0.00,Snow,Light Snow,20,2012-12-25 05:51:00
12:53 AM,32.0,30.0,92,29.99,2.0,NNE,5.8,-,0.00,Snow,Light Snow,30,2012-12-25 05:53:00
1:09 AM,32.0,30.2,93,29.99,3.0,NE,4.6,-,0.00,Snow,Light Snow,40,2012-12-25 06:09:00
1:30 AM,32.0,30.2,93,29.98,3.0,NE,5.8,-,0.00,Snow,Light Snow,40,2012-12-25 06:30:00
1:53 AM,33.1,30.9,92,29.98,5.0,NNE,5.8,-,0.00,,Overcast,30,2012-12-25 06:53:00
2:19 AM,33.8,30.2,87,29.97,6.0,NE,5.8,-,0.00,,Overcast,40,2012-12-25 07:19:00
2:53 AM,33.1,32.0,96,29.97,5.0,NE,6.9,-,0.00,Rain,Light Rain,40,2012-12-25 07:53:00
3:28 AM,33.8,32.0,93,29.96,6.0,NE,4.6,-,0.00,,Overcast,40,2012-12-25 08:28:00
3:53 AM,33.1,32.0,96,29.96,9.0,NNE,4.6,-,0.00,,Overcast,20,2012-12-25 08:53:00
4:21 AM,33.8,32.0,93,29.96,7.0,NNE,4.6,-,0.00,Rain,Light Rain,20,2012-12-25 09:21:00
4:53 AM,34.0,32.0,92,29.94,7.0,ENE,6.9,-,0.00,,Overcast,70,2012-12-25 09:53:00
5:08 AM,33.8,32.0,93,29.93,9.0,NE,8.1,-,N/A,,Overcast,50,2012-12-25 10:08:00
5:53 AM,34.0,33.1,96,29.95,10.0,NE,5.8,-,0.00,Rain,Light Rain,40,2012-12-25 10:53:00
6:06 AM,35.6,33.8,93,29.94,10.0,NNE,5.8,-,0.00,,Overcast,20,2012-12-25 11:06:00
6:23 AM,35.6,33.8,93,29.95,10.0,NNE,6.9,-,0.00,,Overcast,20,2012-12-25 11:23:00
6:53 AM,35.1,33.1,92,29.95,10.0,North,6.9,-,0.00,,Overcast,10,2012-12-25 11:53:00
7:53 AM,34.0,32.0,92,29.96,5.0,North,9.2,-,0.00,Rain,Light Rain,10,2012-12-25 12:53:00
8:53 AM,34.0,33.1,96,29.98,4.0,North,11.5,-,0.00,Rain,Light Rain,10,2012-12-25 13:53:00
9:24 AM,33.8,33.8,100,29.99,5.0,North,11.5,-,0.00,Rain,Light Rain,360,2012-12-25 14:24:00
9:53 AM,34.0,33.1,96,30.00,4.0,North,9.2,-,0.00,Rain,Light Rain,360,2012-12-25 14:53:00
10:53 AM,33.1,32.0,96,30.00,5.0,North,10.4,17.3,0.00,,Overcast,350,2012-12-25 15:53:00
11:53 AM,32.0,30.9,96,29.99,6.0,North,11.5,-,0.00,,Overcast,350,2012-12-25 16:53:00
12:45 PM,33.8,30.2,87,29.99,9.0,North,11.5,17.3,N/A,,Overcast,350,2012-12-25 17:45:00
12:53 PM,32.0,30.9,96,29.99,10.0,North,13.8,20.7,N/A,,Overcast,350,2012-12-25 17:53:00
1:01 PM,32.0,30.2,93,29.98,10.0,North,11.5,20.7,N/A,,Overcast,350,2012-12-25 18:01:00
1:53 PM,33.1,30.9,92,29.99,10.0,North,9.2,-,N/A,,Overcast,350,2012-12-25 18:53:00
2:53 PM,34.0,30.9,89,30.05,10.0,NNW,12.7,-,N/A,,Overcast,330,2012-12-25 19:53:00
3:20 PM,33.8,30.2,87,30.05,10.0,NNW,11.5,-,N/A,,Overcast,340,2012-12-25 20:20:00
3:53 PM,34.0,30.0,85,30.05,10.0,NNW,8.1,-,N/A,,Overcast,340,2012-12-25 20:53:00
4:53 PM,33.1,28.9,85,30.07,10.0,North,6.9,-,N/A,,Partly Cloudy,350,2012-12-25 21:53:00
5:53 PM,32.0,28.0,85,30.10,10.0,North,6.9,-,N/A,,Clear,360,2012-12-25 22:53:00
6:53 PM,30.9,28.0,89,30.14,10.0,NNW,6.9,-,N/A,,Clear,330,2012-12-25 23:53:00
7:53 PM,32.0,24.1,73,30.15,10.0,NNW,9.2,-,N/A,,Clear,340,2012-12-26 00:53:00
8:53 PM,30.9,23.0,72,30.16,10.0,NNW,8.1,-,N/A,,Clear,330,2012-12-26 01:53:00
9:53 PM,30.0,21.9,72,30.18,10.0,NW,10.4,-,N/A,,Clear,320,2012-12-26 02:53:00
10:53 PM,30.0,21.0,69,30.20,10.0,North,5.8,-,N/A,,Clear,350,2012-12-26 03:53:00
11:53 PM,28.9,19.9,69,30.21,10.0,North,8.1,-,N/A,,Clear,360,2012-12-26 04:53:00